Simultaneous Nadir Overpasses (SNOs) Predictions

Prediction of SNOs between GOES-14 and NPP Satellite Orbit:

Table of predicted SNOs for the next 14.0 days since TLE Epoch: 10/9/2021
Index Date Time (GOES-14) GOES-14 Lat,Lon NPP Lat,Lon Distance(km) Time Diff (sec)
1 10/10/2021 08:33:38 0.28,-104.27 0.79,-106.60 265.61 80
2 10/11/2021 08:12:13 0.29,-104.25 -0.22,-102.07 249.68 80
3 10/12/2021 20:34:10 -0.26,-104.20 -0.98,-107.37 361.14 80
4 10/13/2021 20:18:05 -0.27,-104.21 0.03,-102.84 156.53 80
5 10/15/2021 08:39:54 0.24,-104.29 1.08,-108.12 435.94 80
6 10/16/2021 08:18:29 0.26,-104.28 0.12,-103.57 79.76 80
7 10/18/2021 20:21:41 -0.24,-104.21 -0.30,-104.34 16.21 80
8 10/21/2021 08:27:26 0.23,-104.33 0.39,-105.09 87.40 80
9 10/22/2021 08:06:01 0.24,-104.32 -0.62,-100.56 428.68 80
